OneWeb SL0240

operational
NORAD ID: 48785 Int'l Des: 2021-045 Owner: ONEWEBN Country: UK Constellation: oneweb
LEOCIRCULARPOLARONEWEB_TYPE

Über OneWeb SL0240

Beschreibung wird geladen...

Live-Position

3D-Globus wird geladen...

Nächste Überflüge

Höhenverlauf

Altitude vs Time

uPlot chart will show altitude changes over time

Zweizeiliger Elementsatz

1 48785U 21045U 25258.53995789 .00000122 00000-0 28935-3 0 9996
2 48785 87.9034 313.9626 0001621 106.0531 254.0778 13.15548349208298
Epoch: 15. Sept. 2025 • Age: 15 hours

Aktueller Status

Höhe 1214.4 km
Geschwindigkeit 7.25 km/s
Subsatellitenpunkt 84.23°N, 80.24°W
Startdatum 28. Mai 2021
Alter 4.3 years
Typ internet

Technische Details

Klassifizierung Payload
Masse 148.00 kg
Trockenmasse 140.00 kg
Gesamtmasse 148.00 kg
Länge 1.30 m
Durchmesser 1.00 m
Spannweite 5.00 m
Form Trapezoid+2 pan
Hersteller ONEWUS
Bus-Typ ARROW
Phasenstatus In Orbit
Besitzer/Staat ONEWEBN/UK

Große Konstellationen

Loading constellations...